Hourly Weather Kladno

Today, 25 July, Sunday

Time Temperature Precipitation Wind Pressure Humidity
00:00 +19°C° 0 mm 5 mps 760 mmHg 79%
01:00 +17°C° 0 mm 5 mps 760 mmHg 85%
02:00 +18°C° 0 mm 4 mps 760 mmHg 83%
03:00 +18°C° 0 mm 4 mps 759 mmHg 80%
04:00 +19°C° 0 mm 4 mps 759 mmHg 78%
05:00 +20°C° 0 mm 4 mps 759 mmHg 73%
06:00 +21°C° 0 mm 4 mps 759 mmHg 68%
07:00 +22°C° 0 mm 5 mps 759 mmHg 61%
08:00 +25°C° 0 mm 5 mps 759 mmHg 56%
09:00 +26°C° 0 mm 5 mps 759 mmHg 51%
10:00 +28°C° 0 mm 5 mps 759 mmHg 46%
11:00 +28°C° 0 mm 5 mps 759 mmHg 44%
12:00 +29°C° 0 mm 5 mps 758 mmHg 42%
13:00 +30°C° 0 mm 5 mps 758 mmHg 40%
14:00 +30°C° 0 mm 5 mps 758 mmHg 41%
15:00 +30°C° 0 mm 5 mps 758 mmHg 41%
16:00 +32°C° 0 mm 5 mps 758 mmHg 41%
17:00 +29°C° 0 mm 4 mps 758 mmHg 47%
18:00 +28°C° 0 mm 4 mps 758 mmHg 52%
19:00 +27°C° 0 mm 4 mps 758 mmHg 58%
20:00 +25°C° 0 mm 4 mps 758 mmHg 62%
21:00 +23°C° 0 mm 4 mps 758 mmHg 67%
22:00 +21°C° 0 mm 3 mps 758 mmHg 72%
23:00 +21°C° 0 mm 3 mps 758 mmHg 74%

Tomorrow, 26 July, Monday

Time Temperature Precipitation Wind Pressure Humidity
00:00 +20°C° 0 mm 3 mps 758 mmHg 75%
01:00 +20°C° 0 mm 3 mps 759 mmHg 77%
02:00 +19°C° 0 mm 3 mps 758 mmHg 79%
03:00 +19°C° 0 mm 3 mps 758 mmHg 81%
04:00 +19°C° 0 mm 3 mps 758 mmHg 83%
05:00 +20°C° 0 mm 3 mps 758 mmHg 77%
06:00 +22°C° 0 mm 3 mps 759 mmHg 71%
07:00 +23°C° 0 mm 4 mps 759 mmHg 65%
08:00 +25°C° 0 mm 3 mps 759 mmHg 61%
09:00 +26°C° 0 mm 3 mps 759 mmHg 56%
10:00 +27°C° 0 mm 3 mps 759 mmHg 52%
11:00 +28°C° 0 mm 3 mps 758 mmHg 51%
12:00 +29°C° 0 mm 3 mps 758 mmHg 49%
13:00 +29°C° 0 mm 4 mps 758 mmHg 48%
14:00 +29°C° 0 mm 4 mps 758 mmHg 49%
15:00 +29°C° 0 mm 4 mps 758 mmHg 50%
16:00 +29°C° 0 mm 4 mps 758 mmHg 51%
17:00 +28°C° 0 mm 3 mps 757 mmHg 55%
18:00 +27°C° 0 mm 3 mps 757 mmHg 58%
19:00 +27°C° 0 mm 3 mps 757 mmHg 62%
20:00 +25°C° 0.1 mm 3 mps 757 mmHg 68%
21:00 +24°C° 0.1 mm 3 mps 757 mmHg 75%
22:00 +21°C° 0.1 mm 3 mps 757 mmHg 81%
23:00 +21°C° 0 mm 2 mps 757 mmHg 82%

Day after tomorrow, 27 July, Tuesday

Time Temperature Precipitation Wind Pressure Humidity
00:00 +21°C° 0 mm 2 mps 757 mmHg 82%
01:00 +20°C° 0 mm 2 mps 757 mmHg 83%
02:00 +20°C° 0 mm 2 mps 757 mmHg 85%
03:00 +20°C° 0 mm 2 mps 757 mmHg 86%
04:00 +19°C° 0 mm 3 mps 757 mmHg 88%
05:00 +20°C° 0.1 mm 3 mps 757 mmHg 85%
06:00 +22°C° 0.1 mm 4 mps 757 mmHg 82%
07:00 +23°C° 0.1 mm 5 mps 757 mmHg 80%
08:00 +25°C° 0 mm 5 mps 757 mmHg 74%
09:00 +25°C° 0 mm 5 mps 758 mmHg 69%
10:00 +26°C° 0 mm 5 mps 758 mmHg 64%
11:00 +27°C° 0.1 mm 5 mps 758 mmHg 61%
12:00 +27°C° 0.1 mm 5 mps 758 mmHg 59%
13:00 +28°C° 0.1 mm 5 mps 758 mmHg 56%
14:00 +28°C° 0.1 mm 5 mps 758 mmHg 57%
15:00 +27°C° 0.1 mm 4 mps 758 mmHg 58%
16:00 +27°C° 0.1 mm 4 mps 758 mmHg 59%
17:00 +26°C° 0.1 mm 3 mps 758 mmHg 64%
18:00 +25°C° 0.1 mm 2 mps 758 mmHg 69%
19:00 +23°C° 0.1 mm 1 mps 758 mmHg 74%
20:00 +23°C° 0 mm 1 mps 758 mmHg 76%
21:00 +22°C° 0 mm 1 mps 758 mmHg 78%
22:00 +22°C° 0 mm 1 mps 758 mmHg 80%
23:00 +20°C° 0 mm 2 mps 758 mmHg 82%

28 July, Wednesday

Time Temperature Precipitation Wind Pressure Humidity
00:00 +19°C° 0 mm 2 mps 758 mmHg 85%
01:00 +19°C° 0 mm 3 mps 758 mmHg 87%
02:00 +19°C° 0 mm 3 mps 758 mmHg 87%
03:00 +19°C° 0 mm 3 mps 758 mmHg 87%
04:00 +18°C° 0 mm 3 mps 758 mmHg 86%
05:00 +20°C° 0 mm 3 mps 758 mmHg 81%
06:00 +21°C° 0 mm 3 mps 758 mmHg 77%
07:00 +22°C° 0 mm 4 mps 758 mmHg 72%
08:00 +23°C° 0.1 mm 4 mps 758 mmHg 64%
09:00 +26°C° 0.1 mm 5 mps 757 mmHg 56%
10:00 +28°C° 0.1 mm 5 mps 757 mmHg 47%
11:00 +27°C° 0.1 mm 5 mps 757 mmHg 48%
12:00 +27°C° 0.1 mm 5 mps 757 mmHg 50%
13:00 +27°C° 0.1 mm 6 mps 757 mmHg 51%
14:00 +26°C° 0 mm 6 mps 758 mmHg 51%
15:00 +26°C° 0 mm 6 mps 758 mmHg 52%
16:00 +26°C° 0 mm 7 mps 758 mmHg 52%
17:00 +24°C° 0 mm 6 mps 758 mmHg 55%
18:00 +23°C° 0 mm 6 mps 758 mmHg 59%
19:00 +22°C° 0 mm 6 mps 758 mmHg 62%
20:00 +21°C° 0 mm 5 mps 758 mmHg 69%
21:00 +19°C° 0 mm 4 mps 759 mmHg 77%
22:00 +18°C° 0 mm 4 mps 759 mmHg 84%
23:00 +17°C° 0 mm 4 mps 759 mmHg 86%

29 July, Thursday

Time Temperature Precipitation Wind Pressure Humidity
00:00 +17°C° 0 mm 4 mps 759 mmHg 88%
01:00 +17°C° 0 mm 4 mps 759 mmHg 90%
02:00 +15°C° 0 mm 4 mps 759 mmHg 91%
03:00 +15°C° 0 mm 4 mps 759 mmHg 92%
04:00 +15°C° 0 mm 4 mps 759 mmHg 93%
05:00 +17°C° 0 mm 4 mps 759 mmHg 85%
06:00 +19°C° 0 mm 4 mps 759 mmHg 77%
07:00 +20°C° 0 mm 4 mps 759 mmHg 70%
08:00 +22°C° 0 mm 4 mps 759 mmHg 62%
09:00 +25°C° 0 mm 4 mps 760 mmHg 55%
10:00 +26°C° 0 mm 4 mps 760 mmHg 47%
11:00 +27°C° 0 mm 4 mps 759 mmHg 47%
12:00 +27°C° 0 mm 4 mps 759 mmHg 46%
13:00 +27°C° 0 mm 4 mps 758 mmHg 46%
14:00 +27°C° 0 mm 3 mps 758 mmHg 49%
15:00 +26°C° 0 mm 2 mps 758 mmHg 52%
16:00 +26°C° 0 mm 2 mps 758 mmHg 54%
17:00 +25°C° 0 mm 2 mps 758 mmHg 56%
18:00 +25°C° 0 mm 2 mps 758 mmHg 58%
19:00 +24°C° 0 mm 3 mps 757 mmHg 60%
20:00 +24°C° 0 mm 3 mps 757 mmHg 62%
21:00 +22°C° 0 mm 3 mps 757 mmHg 63%
22:00 +22°C° 0 mm 3 mps 757 mmHg 64%
23:00 +21°C° 0 mm 3 mps 757 mmHg 67%

30 July, Friday

Time Temperature Precipitation Wind Pressure Humidity
00:00 +20°C° 0 mm 3 mps 757 mmHg 69%
01:00 +19°C° 0 mm 3 mps 756 mmHg 72%
02:00 +19°C° 0 mm 2 mps 756 mmHg 72%
03:00 +19°C° 0 mm 2 mps 756 mmHg 73%
04:00 +20°C° 0 mm 1 mps 756 mmHg 74%
05:00 +20°C° 0 mm 2 mps 756 mmHg 70%
06:00 +21°C° 0 mm 2 mps 755 mmHg 66%
07:00 +23°C° 0 mm 2 mps 755 mmHg 63%
08:00 +24°C° 0.1 mm 2 mps 755 mmHg 64%
09:00 +24°C° 0.1 mm 3 mps 754 mmHg 65%
10:00 +25°C° 0.1 mm 3 mps 754 mmHg 67%
11:00 +25°C° 0.2 mm 4 mps 754 mmHg 66%
12:00 +25°C° 0.2 mm 5 mps 754 mmHg 64%
13:00 +24°C° 0.2 mm 6 mps 754 mmHg 63%
14:00 +24°C° 0.1 mm 6 mps 754 mmHg 63%
15:00 +23°C° 0.1 mm 6 mps 754 mmHg 63%
16:00 +23°C° 0.1 mm 5 mps 755 mmHg 63%
17:00 +22°C° 0.1 mm 5 mps 755 mmHg 67%
18:00 +21°C° 0.1 mm 4 mps 755 mmHg 72%
19:00 +20°C° 0.1 mm 4 mps 755 mmHg 76%
20:00 +19°C° 0 mm 4 mps 755 mmHg 79%
21:00 +18°C° 0 mm 4 mps 755 mmHg 82%
22:00 +17°C° 0 mm 4 mps 755 mmHg 85%
23:00 +15°C° 0 mm 4 mps 755 mmHg 86%
Show more